User: anonymous   Login
Location: Unspecified
(0.0000°N, 0.0000°E)
Time: 03:36:48
(UTC+00:00)
Language:

OPTOS - Orbit

View from above orbital plane
View from above orbital plane
View from above satellite
View from above satellite

Ground track
Ground track

The orbit data is extracted from the following two-line orbital elements,

1 39429U 13066P   17112.56394126 +.00000648 +00000-0 +12403-3 0  9992
2 39429 097.6642 118.1944 0146138 211.1249 148.1182 14.60415567181996
Epoch (UTC): 22 April 2017 13:32:04
Eccentricity: 0.0146138
inclination: 97.6642°
perigee height: 588 km
apogee height: 795 km
right ascension of ascending node: 118.1944°
argument of perigee: 211.1249°
revolutions per day: 14.60415567
mean anomaly at epoch: 148.1182°
orbit number at epoch: 18199

The dashed part of the orbit path shows where the satellite is in the earth's shadow,  

DLR